CSC8936 ZUUU-ZLDH

Flight info

Callsign CSC8936
Flight time N/A
Altitude 32100
Route BOKIR9Z BOKIR W179 OMBON W195 VIDEK/K0846S1010 W195 LAXAL/K0848S0980 W195 IDOPA W197 ANDIM B215 TODOD TOD09A
Aircraft A321/M-SDE3FGHIRWY/LB1

Departure

Time N/A
Airport Chengdu Shuangliu International Airport (ZUUU)

Arrival

Time 2026-04-24 12:51
Airport Dunhuang Mogao International Airport (ZLDH)
Time Latitude Longitude Altitude Speed Heading
2026-04-24 11:01 33.51750 104.16179 34160 ft 410 kts 326°
2026-04-24 11:02 33.56752 104.12867 34152 ft 413 kts 332°
2026-04-24 11:02 33.62398 104.11216 34145 ft 427 kts 352°
2026-04-24 11:03 33.68378 104.11198 34146 ft 430 kts 354°
2026-04-24 11:03 33.74365 104.11195 34140 ft 430 kts 354°
2026-04-24 11:04 33.80352 104.11189 34135 ft 430 kts 354°
2026-04-24 11:04 33.86304 104.11196 34130 ft 431 kts 354°
2026-04-24 11:05 33.92303 104.11198 34132 ft 431 kts 354°
2026-04-24 11:05 33.98303 104.11196 34143 ft 431 kts 354°
2026-04-24 11:06 34.04302 104.11195 34137 ft 431 kts 355°
2026-04-24 11:06 34.10295 104.11197 34141 ft 431 kts 355°
2026-04-24 11:07 34.19300 104.11193 34154 ft 432 kts 355°
2026-04-24 11:07 34.25320 104.11181 34156 ft 432 kts 355°
2026-04-24 11:08 34.31337 104.11189 34167 ft 433 kts 355°
2026-04-24 11:08 34.37328 104.11194 34174 ft 433 kts 355°
2026-04-24 11:09 34.43355 104.11202 34177 ft 433 kts 355°
2026-04-24 11:09 34.49378 104.11194 34182 ft 433 kts 355°
2026-04-24 11:10 34.55408 104.11189 34188 ft 433 kts 355°
2026-04-24 11:10 34.60456 104.11189 34196 ft 433 kts 355°
2026-04-24 11:11 34.66445 104.11193 34198 ft 433 kts 355°
2026-04-24 11:11 34.72464 104.11194 34207 ft 432 kts 355°
2026-04-24 11:12 34.78479 104.11196 34210 ft 432 kts 355°
2026-04-24 11:12 34.84490 104.11196 34214 ft 431 kts 355°
2026-04-24 11:13 34.90494 104.11199 34218 ft 431 kts 355°
2026-04-24 11:13 34.96483 104.11197 34209 ft 430 kts 355°
2026-04-24 11:14 35.02467 104.11195 34213 ft 430 kts 355°
2026-04-24 11:14 35.08411 104.11204 34209 ft 430 kts 355°
2026-04-24 11:15 35.14392 104.11205 34208 ft 429 kts 355°
2026-04-24 11:15 35.20368 104.11202 34212 ft 429 kts 355°
2026-04-24 11:16 35.26336 104.11199 34221 ft 429 kts 355°
2026-04-24 11:16 35.32297 104.11191 34214 ft 428 kts 355°
2026-04-24 11:17 35.38250 104.11192 34222 ft 427 kts 355°
2026-04-24 11:17 35.44185 104.11197 34222 ft 426 kts 355°
2026-04-24 11:18 35.50074 104.11195 34232 ft 426 kts 355°
2026-04-24 11:18 35.56002 104.11206 34231 ft 425 kts 355°
2026-04-24 11:19 35.61917 104.11240 34238 ft 425 kts 355°
2026-04-24 11:19 35.67830 104.11274 34235 ft 424 kts 355°
2026-04-24 11:20 35.73730 104.11306 34239 ft 423 kts 355°
2026-04-24 11:20 35.79619 104.11325 34238 ft 423 kts 355°
2026-04-24 11:21 35.85473 104.11055 34241 ft 419 kts 351°
2026-04-24 11:21 35.91277 104.10424 34231 ft 418 kts 351°
2026-04-24 11:22 35.97080 104.09792 34240 ft 418 kts 351°
2026-04-24 11:22 36.02818 104.09156 34230 ft 416 kts 351°
2026-04-24 11:23 36.08584 104.08524 34237 ft 416 kts 351°
2026-04-24 11:23 36.14344 104.07895 34233 ft 415 kts 351°
2026-04-24 11:24 36.20102 104.07263 34234 ft 414 kts 350°
2026-04-24 11:24 36.25845 104.06631 34227 ft 413 kts 351°
2026-04-24 11:25 36.31576 104.06010 34237 ft 413 kts 351°
2026-04-24 11:25 36.37266 104.05393 34235 ft 413 kts 350°
2026-04-24 11:26 36.42983 104.04765 34234 ft 412 kts 350°
2026-04-24 11:26 36.48692 104.04134 34237 ft 412 kts 350°
2026-04-24 11:27 36.54392 104.03500 34240 ft 411 kts 349°
2026-04-24 11:27 36.57174 104.02826 34240 ft 405 kts 338°
2026-04-24 11:27 36.59744 104.01460 34232 ft 400 kts 328°
2026-04-24 11:28 36.62013 103.99484 34235 ft 398 kts 317°
2026-04-24 11:28 36.63913 103.96995 34236 ft 397 kts 307°
2026-04-24 11:28 36.66712 103.91055 34235 ft 398 kts 300°
2026-04-24 11:29 36.69357 103.84987 34237 ft 399 kts 300°
2026-04-24 11:29 36.71995 103.78898 34248 ft 399 kts 300°
2026-04-24 11:30 36.74610 103.72837 34253 ft 399 kts 300°
2026-04-24 11:30 36.77241 103.66738 34254 ft 399 kts 300°
2026-04-24 11:31 36.79875 103.60635 34273 ft 400 kts 300°
2026-04-24 11:31 36.82510 103.54523 34276 ft 400 kts 300°
2026-04-24 11:32 36.85137 103.48416 34285 ft 399 kts 300°
2026-04-24 11:32 36.87761 103.42302 34281 ft 399 kts 300°
2026-04-24 11:33 36.90377 103.36177 34286 ft 400 kts 300°
2026-04-24 11:33 36.92994 103.30043 34286 ft 400 kts 300°
2026-04-24 11:34 36.95735 103.24044 34289 ft 400 kts 303°
2026-04-24 11:34 36.98763 103.18157 34285 ft 400 kts 304°
2026-04-24 11:35 37.01779 103.12357 34287 ft 400 kts 304°
2026-04-24 11:35 37.04765 103.06472 34281 ft 401 kts 303°
2026-04-24 11:36 37.07726 103.00555 34282 ft 401 kts 303°
2026-04-24 11:36 37.10686 102.94627 34270 ft 402 kts 303°
2026-04-24 11:37 37.13653 102.88684 34274 ft 402 kts 303°
2026-04-24 11:37 37.16624 102.82731 34268 ft 403 kts 303°
2026-04-24 11:38 37.19599 102.76767 34267 ft 403 kts 303°
2026-04-24 11:38 37.22575 102.70789 34260 ft 404 kts 303°
2026-04-24 11:39 37.25532 102.64832 34258 ft 405 kts 303°
2026-04-24 11:39 37.28512 102.58820 34251 ft 406 kts 303°
2026-04-24 11:40 37.31496 102.52780 34256 ft 408 kts 303°
2026-04-24 11:40 37.34491 102.46709 34251 ft 409 kts 302°
2026-04-24 11:41 37.36625 102.40063 34253 ft 414 kts 287°
2026-04-24 11:41 37.37994 102.33016 34248 ft 415 kts 287°
2026-04-24 11:42 37.39378 102.25965 34251 ft 416 kts 287°
2026-04-24 11:42 37.40764 102.18903 34232 ft 416 kts 287°
2026-04-24 11:43 37.42135 102.11876 34236 ft 417 kts 287°
2026-04-24 11:43 37.43507 102.04777 34229 ft 418 kts 287°
2026-04-24 11:44 37.44886 101.97660 34241 ft 419 kts 287°
2026-04-24 11:44 37.46266 101.90543 34230 ft 419 kts 287°
2026-04-24 11:45 37.47636 101.83423 34239 ft 419 kts 287°
2026-04-24 11:45 37.49003 101.76289 34233 ft 419 kts 287°
2026-04-24 11:46 37.50429 101.69198 34230 ft 417 kts 292°
2026-04-24 11:46 37.52880 101.62636 34223 ft 414 kts 299°
2026-04-24 11:47 37.55496 101.56191 34218 ft 413 kts 299°
2026-04-24 11:47 37.58105 101.49730 34213 ft 413 kts 299°
2026-04-24 11:48 37.60710 101.43270 34219 ft 413 kts 299°
2026-04-24 11:48 37.63312 101.36810 34209 ft 413 kts 299°
2026-04-24 11:49 37.65913 101.30365 34110 ft 412 kts 300°
2026-04-24 11:49 37.68667 101.24040 34186 ft 415 kts 302°
2026-04-24 11:50 37.71533 101.17707 34194 ft 415 kts 302°
2026-04-24 11:50 37.74372 101.11364 34189 ft 414 kts 302°
2026-04-24 11:51 37.77169 101.05012 34186 ft 413 kts 301°
2026-04-24 11:51 37.79955 100.98663 34179 ft 412 kts 301°
2026-04-24 11:52 37.82730 100.92330 34177 ft 411 kts 302°
2026-04-24 11:52 37.85489 100.85997 34174 ft 411 kts 301°
2026-04-24 11:53 37.88202 100.79690 34169 ft 410 kts 301°
2026-04-24 11:53 37.90934 100.73349 34169 ft 410 kts 301°
2026-04-24 11:54 37.93668 100.67022 34163 ft 409 kts 301°
2026-04-24 11:54 37.96398 100.60695 34158 ft 409 kts 301°
2026-04-24 11:55 37.99112 100.54357 34156 ft 409 kts 301°
2026-04-24 11:55 38.01824 100.48021 34156 ft 408 kts 301°
2026-04-24 11:56 38.04519 100.41721 34150 ft 408 kts 301°
2026-04-24 11:56 38.07226 100.35387 34145 ft 408 kts 301°
2026-04-24 11:57 38.09927 100.29049 34134 ft 408 kts 301°
2026-04-24 11:57 38.12174 100.23760 34234 ft 411 kts 301°
2026-04-24 11:58 38.13528 100.20567 34529 ft 410 kts 301°
2026-04-24 11:58 38.14876 100.17384 34856 ft 408 kts 301°
2026-04-24 11:58 38.16217 100.14214 35184 ft 406 kts 301°
2026-04-24 11:58 38.17550 100.11058 35521 ft 404 kts 301°
2026-04-24 11:59 38.18875 100.07918 35865 ft 402 kts 301°
2026-04-24 11:59 38.20193 100.04790 36088 ft 401 kts 301°
2026-04-24 11:59 38.22832 99.98566 36122 ft 398 kts 302°
2026-04-24 12:00 38.25534 99.92426 36127 ft 397 kts 302°
2026-04-24 12:00 38.28251 99.86304 36125 ft 397 kts 302°
2026-04-24 12:01 38.30952 99.80168 36127 ft 397 kts 302°
2026-04-24 12:01 38.33621 99.74069 36131 ft 397 kts 302°
2026-04-24 12:02 38.36303 99.67918 36136 ft 397 kts 302°
2026-04-24 12:02 38.38986 99.61756 36148 ft 397 kts 302°
2026-04-24 12:03 38.41668 99.55587 36152 ft 397 kts 302°
2026-04-24 12:03 38.44341 99.49431 36159 ft 397 kts 302°
2026-04-24 12:04 38.47007 99.43267 36156 ft 397 kts 302°
2026-04-24 12:04 38.49672 99.37092 36158 ft 397 kts 302°
2026-04-24 12:05 38.52321 99.30959 36163 ft 397 kts 302°
2026-04-24 12:05 38.54979 99.24799 36151 ft 394 kts 302°
2026-04-24 12:06 38.57621 99.18647 36160 ft 395 kts 302°
2026-04-24 12:06 38.60260 99.12487 36153 ft 395 kts 302°
2026-04-24 12:07 38.62900 99.06313 36154 ft 396 kts 302°
2026-04-24 12:07 38.65536 99.00127 36155 ft 396 kts 302°
2026-04-24 12:08 38.68174 98.93949 36154 ft 395 kts 302°
2026-04-24 12:08 38.70806 98.87766 36155 ft 395 kts 302°
2026-04-24 12:09 38.73418 98.81620 36154 ft 395 kts 302°
2026-04-24 12:09 38.76040 98.75427 36147 ft 395 kts 302°
2026-04-24 12:10 38.78654 98.69230 36152 ft 396 kts 302°
2026-04-24 12:11 38.82581 98.59931 36137 ft 396 kts 303°
2026-04-24 12:11 38.85205 98.53712 36139 ft 396 kts 302°
2026-04-24 12:12 38.87818 98.47489 36143 ft 396 kts 302°
2026-04-24 12:12 38.90426 98.41257 36135 ft 396 kts 302°
2026-04-24 12:13 38.93031 98.35023 36134 ft 396 kts 302°
2026-04-24 12:13 38.95633 98.28784 36136 ft 396 kts 302°
2026-04-24 12:14 38.98233 98.22540 36132 ft 396 kts 302°
2026-04-24 12:14 39.00817 98.16340 36137 ft 396 kts 302°
2026-04-24 12:15 39.03412 98.10096 36136 ft 396 kts 302°
2026-04-24 12:15 39.06002 98.03844 36140 ft 396 kts 301°
2026-04-24 12:16 39.08580 97.97596 36133 ft 394 kts 302°
2026-04-24 12:16 39.11156 97.91351 36129 ft 395 kts 301°
2026-04-24 12:17 39.13730 97.85091 36124 ft 396 kts 301°
2026-04-24 12:17 39.16316 97.78800 36128 ft 397 kts 301°
2026-04-24 12:18 39.18877 97.72556 36127 ft 396 kts 301°
2026-04-24 12:18 39.21445 97.66275 36132 ft 396 kts 301°
2026-04-24 12:19 39.24011 97.59976 36138 ft 397 kts 300°
2026-04-24 12:19 39.26561 97.53649 36141 ft 397 kts 300°
2026-04-24 12:20 39.29110 97.47318 36142 ft 398 kts 300°
2026-04-24 12:20 39.31664 97.40979 36145 ft 398 kts 300°
2026-04-24 12:21 39.34218 97.34621 36148 ft 398 kts 300°
2026-04-24 12:21 39.36769 97.28262 36140 ft 399 kts 299°
2026-04-24 12:22 39.39319 97.21891 36141 ft 399 kts 299°
2026-04-24 12:22 39.41842 97.15558 36125 ft 398 kts 299°
2026-04-24 12:23 39.44379 97.09177 36129 ft 399 kts 299°
2026-04-24 12:23 39.46916 97.02783 36122 ft 399 kts 299°
2026-04-24 12:24 39.49473 96.96402 36123 ft 400 kts 299°
2026-04-24 12:24 39.52041 96.90017 36117 ft 399 kts 299°
2026-04-24 12:25 39.54599 96.83628 36029 ft 401 kts 299°
2026-04-24 12:25 39.55878 96.80424 35308 ft 406 kts 299°
2026-04-24 12:25 39.57173 96.77165 34628 ft 408 kts 299°
2026-04-24 12:25 39.58476 96.73885 33967 ft 410 kts 299°
2026-04-24 12:26 39.59782 96.70593 33210 ft 412 kts 299°
2026-04-24 12:26 39.61095 96.67286 32478 ft 413 kts 299°
2026-04-24 12:26 39.62414 96.63961 31732 ft 416 kts 299°
2026-04-24 12:26 39.63740 96.60622 30987 ft 418 kts 299°
2026-04-24 12:27 39.65086 96.57265 30260 ft 421 kts 299°
2026-04-24 12:27 39.66448 96.53895 29458 ft 423 kts 299°
2026-04-24 12:27 39.67818 96.50514 28643 ft 424 kts 299°
2026-04-24 12:27 39.69190 96.47125 27848 ft 424 kts 299°
2026-04-24 12:28 39.70562 96.43727 27077 ft 424 kts 299°
2026-04-24 12:28 39.71930 96.40332 26314 ft 424 kts 299°
2026-04-24 12:28 39.73292 96.36941 25591 ft 424 kts 298°
2026-04-24 12:28 39.74653 96.33545 24878 ft 423 kts 298°
2026-04-24 12:29 39.76008 96.30150 24180 ft 423 kts 298°
2026-04-24 12:29 39.77361 96.26755 23480 ft 423 kts 298°
2026-04-24 12:29 39.78712 96.23368 22685 ft 422 kts 298°
2026-04-24 12:29 39.80063 96.19989 21903 ft 421 kts 298°
2026-04-24 12:30 39.81407 96.16616 21139 ft 419 kts 298°
2026-04-24 12:30 39.82744 96.13252 20458 ft 416 kts 298°
2026-04-24 12:30 39.84062 96.09926 19850 ft 412 kts 297°
2026-04-24 12:30 39.85367 96.06633 19256 ft 408 kts 297°
2026-04-24 12:31 39.86659 96.03366 18677 ft 404 kts 297°
2026-04-24 12:31 39.87941 96.00121 18096 ft 402 kts 297°
2026-04-24 12:31 39.89214 95.96897 17490 ft 399 kts 297°
2026-04-24 12:31 39.90477 95.93707 16986 ft 394 kts 297°
2026-04-24 12:32 39.91728 95.90550 16473 ft 390 kts 297°
2026-04-24 12:32 39.92963 95.87423 15974 ft 386 kts 297°
2026-04-24 12:32 39.94178 95.84339 15640 ft 377 kts 296°
2026-04-24 12:32 39.95351 95.81358 15566 ft 363 kts 296°
2026-04-24 12:33 39.96502 95.78429 15562 ft 363 kts 296°
2026-04-24 12:33 39.97631 95.75489 15227 ft 362 kts 295°
2026-04-24 12:33 39.98722 95.72548 14867 ft 359 kts 295°
2026-04-24 12:33 39.99793 95.69612 14511 ft 358 kts 294°
2026-04-24 12:34 40.00844 95.66725 14125 ft 356 kts 294°
2026-04-24 12:34 40.01919 95.63776 13703 ft 354 kts 294°
2026-04-24 12:34 40.02979 95.60883 13227 ft 353 kts 295°
2026-04-24 12:34 40.04037 95.58001 12716 ft 351 kts 295°
2026-04-24 12:35 40.05079 95.55168 12221 ft 350 kts 295°
2026-04-24 12:35 40.06131 95.52308 11768 ft 348 kts 295°
2026-04-24 12:35 40.07182 95.49465 11620 ft 348 kts 296°
2026-04-24 12:35 40.08439 95.46784 11627 ft 340 kts 305°
2026-04-24 12:36 40.09909 95.44478 11630 ft 322 kts 311°
2026-04-24 12:36 40.11368 95.42363 11624 ft 306 kts 311°
2026-04-24 12:36 40.12774 95.40315 11421 ft 300 kts 310°
2026-04-24 12:36 40.14158 95.38289 11173 ft 298 kts 311°
2026-04-24 12:37 40.15532 95.36270 10932 ft 297 kts 311°
2026-04-24 12:37 40.16905 95.34258 10693 ft 296 kts 311°
2026-04-24 12:37 40.18278 95.32250 10435 ft 296 kts 311°
2026-04-24 12:37 40.19648 95.30245 10175 ft 295 kts 312°
2026-04-24 12:38 40.21014 95.28241 9918 ft 295 kts 312°
2026-04-24 12:38 40.22375 95.26240 9661 ft 294 kts 313°
2026-04-24 12:38 40.23736 95.24242 9382 ft 294 kts 313°
2026-04-24 12:39 40.27621 95.18092 8490 ft 292 kts 301°
2026-04-24 12:39 40.28492 95.15696 8189 ft 292 kts 291°
2026-04-24 12:39 40.29040 95.13133 7896 ft 293 kts 281°
2026-04-24 12:40 40.29246 95.10486 7608 ft 293 kts 271°
2026-04-24 12:40 40.29120 95.07826 7314 ft 293 kts 264°
2026-04-24 12:40 40.28912 95.05210 7031 ft 291 kts 264°
2026-04-24 12:40 40.28708 95.02572 6831 ft 291 kts 265°
2026-04-24 12:41 40.28505 94.99934 6812 ft 292 kts 265°
2026-04-24 12:41 40.28300 94.97291 6797 ft 291 kts 264°
2026-04-24 12:41 40.28095 94.94646 6797 ft 291 kts 264°
2026-04-24 12:41 40.27890 94.92004 6806 ft 292 kts 264°
2026-04-24 12:42 40.27750 94.90220 6802 ft 292 kts 264°
2026-04-24 12:42 40.27476 94.86715 6801 ft 292 kts 264°
2026-04-24 12:42 40.27270 94.84087 6788 ft 284 kts 264°
2026-04-24 12:42 40.27069 94.81582 6805 ft 270 kts 264°
2026-04-24 12:43 40.26877 94.79196 6792 ft 256 kts 264°
2026-04-24 12:43 40.26695 94.76918 6799 ft 249 kts 264°
2026-04-24 12:43 40.26516 94.74669 6803 ft 248 kts 264°
2026-04-24 12:43 40.26339 94.72422 6807 ft 249 kts 264°
2026-04-24 12:44 40.26218 94.70901 6807 ft 248 kts 264°
2026-04-24 12:44 40.26038 94.68662 6812 ft 248 kts 264°
2026-04-24 12:44 40.25802 94.65706 6794 ft 247 kts 264°
2026-04-24 12:44 40.25684 94.64216 6806 ft 248 kts 264°
2026-04-24 12:45 40.25478 94.61983 6796 ft 247 kts 257°
2026-04-24 12:45 40.24821 94.59993 6792 ft 232 kts 234°
2026-04-24 12:45 40.23732 94.58570 6809 ft 215 kts 213°
2026-04-24 12:45 40.22402 94.57751 6685 ft 210 kts 193°
2026-04-24 12:46 40.20965 94.57569 6491 ft 206 kts 173°
2026-04-24 12:46 40.19546 94.57775 6255 ft 205 kts 172°
2026-04-24 12:46 40.18129 94.57971 6024 ft 204 kts 172°
2026-04-24 12:46 40.16734 94.58237 5848 ft 201 kts 160°
2026-04-24 12:47 40.15550 94.59144 5735 ft 199 kts 134°
2026-04-24 12:47 40.14814 94.60635 5521 ft 196 kts 107°
2026-04-24 12:47 40.14680 94.62375 5305 ft 194 kts 84°
2026-04-24 12:47 40.14823 94.64123 5156 ft 193 kts 83°
2026-04-24 12:48 40.14966 94.65854 5099 ft 183 kts 83°
2026-04-24 12:48 40.15096 94.67462 5120 ft 174 kts 83°
2026-04-24 12:48 40.15217 94.68971 5091 ft 162 kts 82°
2026-04-24 12:48 40.15357 94.70398 4855 ft 155 kts 81°
2026-04-24 12:49 40.15433 94.71784 4756 ft 153 kts 82°
2026-04-24 12:49 40.15560 94.73165 4636 ft 152 kts 81°
2026-04-24 12:49 40.15672 94.74542 4475 ft 151 kts 84°
2026-04-24 12:49 40.15774 94.75928 4290 ft 154 kts 83°
2026-04-24 12:50 40.15886 94.77316 4071 ft 153 kts 84°
2026-04-24 12:50 40.15994 94.78692 3846 ft 152 kts 84°
2026-04-24 12:50 40.16102 94.80055 3691 ft 143 kts 83°
2026-04-24 12:50 40.16193 94.81186 3672 ft 102 kts 84°
2026-04-24 12:51 40.16243 94.81833 3670 ft 22 kts 85°